Temperature
10 12 12 12 12 12 13 13 13 12 10 9 10 10 10 9 7 7 7 6 5 5 4 4 4 4 4 4 4 4 4 4 4 4 3 3 3 3 3 3 3 3 3 3
11 11 11 11 10 10 11 11 12 11 8 9 9 10 10 9 8 7 7 6 5 4 3 3 3 3 3 3 3 3 3 3 3 3 3 3 3 3 3 3 3 3 3 3
11 11 9 9 9 9 10 11 11 10 8 7 8 10 10 9 7 6 5 5 4 4 3 3 3 3 3 3 3 3 3 3 3 3 3 3 2 2 2 2 2 2 2 2
10 9 8 9 9 9 10 10 9 8 9 10 9 11 12 10 8 7 5 5 4 3 3 3 3 3 3 3 3 3 2 2 2 2 2 2 2 2 2 2 2 1 1 1
9 8 8 8 8 8 9 8 8 8 8 9 9 9 12 9 8 8 7 5 4 3 3 2 3 3 3 2 2 2 2 2 2 2 2 1 1 1 1 1 1 1 1 1
7 7 7 7 7 7 7 7 7 7 8 8 10 9 11 10 8 8 7 5 4 3 2 2 2 2 2 2 2 2 1 1 1 1 1 1 1 1 1 1 1 0 0 0
8 7 6 6 7 6 7 8 9 9 8 10 8 8 9 8 7 6 6 4 3 2 2 1 1 1 1 1 1 1 1 1 1 1 0 0 0 0 1 0 0 0 -0 -0
8 8 6 6 7 7 7 8 9 9 10 10 7 8 9 6 4 4 3 3 2 2 1 1 1 1 1 1 1 1 1 0 0 0 0 0 -0 -0 -0 -0 -0 -0 -1 -1
8 8 5 5 5 6 6 7 7 8 7 8 9 8 7 5 4 3 2 2 1 1 1 1 0 0 0 1 1 1 0 0 -0 -0 -1 -1 -1 -1 -1 -1 -1 -1 -1 -1
6 6 5 4 4 5 6 6 6 7 7 8 9 9 8 6 5 4 2 1 1 0 -0 0 -0 -0 -0 -0 -0 -0 -0 -1 -1 -1 -1 -1 -1 -1 -1 -1 -1 -1 -2 -2
5 5 5 4 4 6 4 5 6 7 7 7 8 9 6 5 4 4 3 1 -0 -1 -1 -1 -1 -1 -1 -1 -1 -1 -1 -1 -2 -2 -2 -2 -2 -2 -2 -2 -2 -2 -2 -2
4 5 5 5 4 3 4 5 5 6 6 6 7 8 3 3 2 2 1 -1 -1 -1 -1 -2 -2 -2 -2 -2 -2 -2 -2 -2 -2 -2 -2 -2 -2 -2 -2 -3 -3 -3 -3 -3
3 3 4 5 4 2 3 3 3 4 5 5 6 7 2 1 1 0 -1 -1 -2 -2 -2 -2 -3 -3 -2 -2 -2 -3 -3 -3 -3 -3 -3 -3 -3 -3 -3 -3 -3 -3 -3 -4
3 3 4 5 5 4 2 2 2 3 4 5 5 5 3 2 1 0 -1 -2 -2 -3 -3 -3 -3 -3 -3 -3 -3 -3 -3 -3 -3 -3 -3 -3 -4 -4 -4 -4 -4 -4 -4 -4
2 2 3 3 3 3 2 2 2 2 3 4 4 4 3 2 1 -0 -1 -2 -3 -3 -4 -4 -4 -4 -4 -4 -4 -4 -4 -4 -4 -4 -4 -4 -4 -4 -4 -4 -5 -5 -5 -5
1 1 1 2 2 2 1 2 2 1 1 2 2 2 1 0 -1 -2 -2 -3 -4 -4 -4 -4 -4 -4 -4 -4 -4 -4 -4 -4 -4 -4 -4 -5 -5 -5 -5 -5 -5 -5 -5 -5
0 0 1 2 1 1 2 1 1 0 -0 0 1 1 -0 -1 -1 -2 -3 -4 -4 -4 -5 -5 -5 -5 -5 -5 -5 -5 -5 -5 -5 -5 -5 -5 -5 -5 -6 -6 -6 -6 -6 -6
-0 0 0 1 1 1 2 -1 -1 -1 -1 -2 -2 -1 -1 -2 -3 -3 -4 -4 -5 -5 -5 -5 -5 -5 -5 -5 -5 -6 -6 -6 -6 -6 -6 -6 -6 -6 -6 -6 -7 -7 -7 -7
-1 -0 0 1 1 2 1 -2 -2 -2 -1 -2 -3 -3 -3 -4 -4 -3 -4 -5 -5 -5 -5 -5 -5 -6 -5 -6 -6 -6 -6 -6 -6 -6 -7 -7 -7 -7 -7 -7 -7 -7 -7 -7
-2 -2 -0 -0 1 1 0 -3 -4 -2 -1 -3 -4 -4 -4 -5 -2 -2 -5 -6 -6 -6 -6 -6 -6 -6 -6 -6 -7 -7 -7 -7 -7 -7 -7 -7 -7 -7 -7 -8 -8 -8 -8 -8
-2 -2 -2 -1 -0 -0 -3 -5 -4 -1 -2 -5 -6 -6 -6 -5 -5 -6 -7 -7 -7 -6 -6 -6 -6 -6 -6 -7 -7 -7 -8 -8 -8 -8 -8 -8 -8 -8 -8 -8 -8 -8 -9 -9
-3 -2 -2 -2 -1 -1 -6 -5 -4 -4 -6 -7 -7 -7 -8 -8 -8 -8 -8 -7 -7 -7 -7 -7 -7 -7 -7 -8 -8 -8 -8 -8 -8 -8 -8 -8 -8 -8 -8 -9 -9 -9 -9 -9
-5 -5 -4 -4 -3 -5 -7 -7 -7 -8 -8 -8 -8 -9 -9 -9 -9 -9 -9 -8 -8 -8 -8 -8 -8 -8 -8 -8 -8 -8 -8 -9 -9 -9 -8 -8 -9 -9 -9 -9 -9 -9 -9 -9
-6 -7 -6 -6 -5 -7 -7 -8 -8 -8 -8 -9 -9 -9 -9 -10 -10 -10 -9 -9 -9 -9 -9 -9 -8 -8 -8 -9 -9 -9 -9 -9 -9 -9 -9 -9 -9 -9 -9 -9 -9 -10 -9 -10
-6 -7 -7 -6 -6 -7 -8 -8 -8 -9 -9 -9 -9 -9 -10 -10 -10 -10 -10 -10 -10 -10 -9 -9 -9 -9 -9 -9 -9 -9 -9 -10 -10 -10 -10 -10 -10 -10 -10 -10 -10 -10 -10 -10
-8 -8 -7 -6 -8 -8 -8 -9 -9 -10 -10 -10 -10 -10 -10 -10 -10 -10 -10 -10 -10 -10 -10 -10 -9 -9 -9 -9 -9 -10 -10 -10 -10 -10 -10 -10 -10 -10 -10 -10 -10 -10 -10 -10
Wind_Speed
3 6 10 12 14 11 9 11 13 9 5 8 13 16 14 10 11 12 12 11 11 11 9 9 9 9 9 9 9 9 9 8 7 5 4 4 3 3 3 3 4 4 3 3
5 11 11 7 8 9 10 12 13 7 4 7 11 15 14 11 13 12 12 12 11 10 9 9 9 10 10 10 10 10 9 8 7 5 5 3 4 3 3 3 3 3 3 3
10 4 4 6 7 9 12 14 12 9 4 5 7 11 11 8 9 9 9 10 9 10 11 11 10 10 10 10 11 9 10 9 8 6 5 4 3 3 3 2 2 2 2 2
8 6 4 7 8 9 11 9 9 8 7 7 5 9 9 7 7 8 8 8 9 9 10 10 11 11 11 10 10 10 9 9 8 8 7 7 5 5 4 3 2 2 2 2
6 4 5 8 7 8 5 2 6 8 8 9 8 9 9 5 7 8 8 8 8 8 9 10 10 10 10 10 9 9 9 9 8 8 8 7 6 4 3 4 4 3 2 2
5 2 3 4 3 5 2 1 1 3 5 10 11 10 10 5 6 5 5 5 6 7 8 8 8 8 8 9 9 9 9 9 9 8 8 8 7 6 5 5 4 3 2 2
5 4 2 1 1 3 4 3 3 4 6 8 5 8 8 3 2 4 4 4 4 5 7 8 9 9 9 9 9 9 9 9 9 8 8 8 7 7 7 6 5 4 3 2
5 6 5 3 4 4 7 7 7 7 8 6 4 9 4 1 1 1 2 2 2 3 5 6 8 9 9 9 9 9 9 9 8 8 8 7 7 5 5 5 5 4 4 3
5 5 0 2 3 5 5 7 5 5 5 7 7 6 3 1 1 1 1 1 2 3 4 5 6 7 7 8 9 9 9 8 8 8 7 7 7 6 5 5 5 4 4 3
3 6 3 1 2 3 4 4 4 5 6 8 8 7 4 2 2 1 2 2 2 2 3 4 4 5 5 6 6 7 7 7 6 6 6 5 6 6 5 5 5 5 5 4
3 5 3 3 6 7 4 5 5 5 6 6 8 5 1 2 2 2 2 2 2 2 3 3 3 3 3 4 5 5 5 5 5 5 5 5 5 5 5 5 5 5 5 5
2 3 5 6 2 3 5 6 8 7 6 6 8 6 3 1 2 2 1 0 0 1 2 2 3 3 3 3 4 4 4 4 4 4 4 4 4 4 4 4 4 4 5 5
2 3 4 4 2 2 4 5 6 6 5 7 9 6 2 2 2 1 1 1 0 0 1 2 3 3 3 3 2 3 3 4 3 4 4 4 4 4 3 3 4 4 4 5
3 5 8 10 7 3 5 6 7 7 7 10 12 11 6 5 5 4 3 2 2 1 1 2 2 2 2 2 2 2 2 3 3 3 3 3 3 3 3 3 4 4 4 5
3 6 8 12 11 8 9 9 8 10 11 11 12 11 11 8 6 5 4 2 2 2 2 2 2 2 2 2 2 1 1 2 2 3 3 3 3 3 3 3 3 4 4 5
3 5 5 9 8 7 9 10 10 12 11 12 13 12 8 6 4 4 4 3 3 3 3 2 2 2 2 2 1 1 1 1 2 3 3 3 3 3 3 3 3 4 4 5
4 4 5 8 6 6 8 7 8 6 6 6 10 10 6 6 5 5 4 3 4 4 4 3 3 2 2 2 2 2 2 1 2 2 2 2 2 3 3 3 4 4 5 5
5 5 4 5 5 8 2 1 2 5 5 5 5 7 7 8 7 5 4 4 4 4 4 3 3 2 2 2 2 2 1 1 2 2 2 3 3 3 3 3 4 4 4 5
6 5 4 4 6 7 3 1 2 5 6 3 6 9 8 7 5 3 2 3 4 4 4 3 3 3 2 2 2 2 2 2 2 3 3 3 3 3 3 4 4 4 5 5
1 3 4 4 5 6 3 4 5 3 5 3 5 7 6 5 5 4 5 6 5 4 3 3 2 2 2 2 2 2 2 3 3 3 3 3 3 4 4 4 4 4 4 5
2 3 5 7 7 5 4 5 2 3 4 6 6 6 6 5 6 7 8 7 5 4 4 3 2 2 2 2 2 2 3 4 3 3 3 3 3 4 4 4 4 4 4 4
3 3 4 4 5 4 4 2 1 4 6 6 7 7 6 7 8 8 7 6 5 4 4 3 2 2 2 2 2 3 4 4 3 2 3 3 3 3 3 3 4 4 4 4
2 3 3 3 3 3 1 2 4 5 6 7 7 7 7 7 8 7 6 6 6 5 4 3 2 2 2 2 3 4 4 3 2 2 3 3 3 3 3 4 4 4 4 4
2 3 3 4 5 5 3 4 6 6 6 7 7 7 6 7 7 7 7 6 6 5 4 3 3 3 3 3 3 4 3 3 3 3 3 3 3 3 3 3 3 4 4 4
4 2 3 5 6 6 4 6 7 7 6 6 7 6 6 6 6 6 7 6 6 5 5 4 4 4 4 4 4 3 3 3 3 3 3 3 3 3 3 3 4 5 5 6
2 4 5 6 5 6 7 7 8 7 7 8 8 7 7 6 6 7 6 6 6 6 5 5 4 4 5 4 4 4 3 3 3 3 3 3 3 3 3 3 3 5 6 8
Wind_Direction
185 205 221 222 223 245 251 247 254 256 229 232 245 254 254 234 228 232 229 225 221 218 207 194 190 185 180 178 176 173 169 167 163 165 165 161 155 139 116 100 98 91 86 81
201 230 238 239 233 236 243 250 257 264 243 245 261 262 259 238 230 229 227 225 219 209 197 190 188 185 186 184 182 178 177 176 177 175 173 175 164 155 134 114 107 98 91 85
220 236 219 213 219 231 240 244 254 260 281 244 274 266 241 226 221 226 227 224 215 206 198 191 189 188 187 186 185 182 180 179 179 173 163 154 151 150 154 151 130 110 107 99
237 239 214 220 229 231 251 247 251 253 258 256 241 276 251 226 223 223 222 218 213 207 200 193 189 189 190 188 184 182 181 180 179 175 177 175 178 180 179 176 167 153 144 138
235 224 218 227 236 228 255 265 241 242 251 263 237 256 263 214 233 232 223 217 212 205 200 196 192 190 187 184 182 181 181 182 181 182 185 186 190 188 173 169 172 171 166 171
253 234 231 239 254 214 178 117 189 219 235 252 238 234 262 219 233 238 227 218 210 203 197 195 191 184 182 180 179 179 181 183 184 187 190 195 194 188 181 181 182 185 188 189
253 225 213 204 177 177 200 210 244 233 227 246 203 226 254 238 242 240 237 221 204 195 190 188 187 185 184 182 181 181 184 186 187 190 194 200 200 196 196 193 193 195 201 209
261 254 207 212 222 208 211 218 229 249 255 262 212 235 247 144 75 288 259 235 205 194 190 189 189 189 188 186 185 185 187 190 190 193 196 200 200 200 206 206 204 206 213 218
258 262 240 253 265 213 203 220 244 261 273 264 243 244 253 207 306 306 273 233 216 209 198 192 189 190 189 187 188 189 188 191 192 195 196 199 198 200 204 209 213 218 219 221
263 272 273 284 232 228 240 209 198 224 246 256 252 243 243 229 255 260 244 234 230 218 198 188 184 186 187 185 184 184 186 190 190 191 193 199 199 202 204 210 215 221 223 220
250 253 266 250 222 218 194 205 222 230 245 250 262 251 185 225 237 254 241 217 209 199 189 182 178 173 170 172 175 176 180 181 184 187 189 191 193 197 204 211 219 225 227 226
232 246 260 256 264 287 230 224 212 226 234 234 258 263 67 34 326 299 290 299 195 179 172 170 168 160 156 165 177 179 179 179 182 185 186 186 187 194 206 217 226 230 233 235
208 226 276 269 225 213 237 234 232 245 246 238 245 256 89 38 1 355 330 311 328 136 157 157 159 165 172 175 181 185 179 180 180 182 185 187 193 199 214 228 234 237 239 241
231 230 240 260 284 261 257 249 236 227 237 244 244 261 281 296 304 302 295 285 281 270 218 188 182 181 183 184 185 181 189 185 181 182 189 196 207 215 222 231 238 240 242 243
232 248 250 265 275 266 259 254 234 229 240 250 263 265 280 289 291 292 299 306 300 276 256 232 223 219 206 193 189 187 192 189 185 191 201 210 220 226 228 233 239 244 245 248
250 253 263 268 262 263 267 262 243 241 248 253 265 273 295 297 294 293 293 294 285 281 273 258 249 236 217 210 206 204 209 208 196 200 213 218 223 223 230 238 243 246 248 251
237 236 254 268 282 273 263 256 231 230 240 246 255 271 298 300 294 292 286 282 281 282 283 274 254 238 234 228 222 226 232 231 213 213 217 217 224 228 235 245 248 250 254 256
227 232 246 270 270 248 264 60 206 219 245 245 264 294 304 299 302 303 290 287 288 291 289 280 265 254 249 237 231 234 230 222 218 220 227 227 231 239 243 245 248 254 257 255
230 227 236 244 258 266 266 353 269 240 258 282 274 289 305 328 316 303 350 325 300 296 294 283 272 255 239 230 223 216 225 226 223 229 239 242 237 241 246 247 251 258 260 259
184 224 237 241 256 260 322 346 328 244 254 359 313 303 315 318 293 310 353 333 320 315 311 304 295 266 245 240 222 219 232 235 239 246 253 254 247 241 245 250 255 259 258 260
244 237 236 246 252 264 348 333 313 237 315 350 337 324 313 295 290 309 317 317 312 311 312 309 291 266 255 243 227 234 244 252 262 261 258 256 256 250 247 248 250 251 257 262
259 245 234 238 241 266 8 26 292 318 339 335 328 324 315 306 303 305 311 316 317 317 317 310 295 285 275 247 231 242 253 268 274 264 261 263 263 262 249 243 249 249 249 255
254 272 274 244 265 342 12 339 330 329 318 322 321 321 317 309 308 312 314 315 315 314 310 301 288 288 285 259 241 249 265 274 267 259 263 269 270 263 252 244 244 247 245 248
288 308 267 274 287 309 303 324 327 325 317 312 310 310 310 304 305 309 311 313 314 313 308 298 285 280 283 280 270 263 269 262 251 253 262 265 266 265 260 252 244 244 244 248
298 290 277 272 296 310 310 328 326 326 324 320 319 314 310 306 305 307 309 310 310 308 305 292 279 276 281 286 280 277 266 248 245 253 263 266 263 262 262 260 254 252 251 251
289 274 276 282 299 293 301 323 327 323 323 321 320 321 321 312 301 304 303 303 302 302 303 293 283 281 285 287 284 280 266 247 241 249 256 260 262 263 265 267 275 270 268 269
Height
1490 1490 1485 1483 1485 1484 1483 1482 1480 1481 1488 1490 1484 1481 1480 1483 1485 1484 1485 1485 1486 1487 1490 1491 1493 1495 1497 1499 1501 1503 1505 1507 1509 1510 1511 1513 1515 1516 1517 1517 1518 1518 1519 1519
1488 1485 1483 1486 1487 1488 1486 1483 1480 1483 1489 1488 1482 1478 1475 1477 1477 1478 1479 1480 1481 1483 1485 1487 1488 1490 1492 1495 1497 1499 1501 1503 1505 1507 1509 1511 1512 1513 1514 1515 1515 1516 1516 1517
1480 1481 1485 1486 1486 1486 1483 1481 1479 1482 1487 1488 1485 1471 1468 1470 1473 1475 1475 1476 1477 1479 1480 1482 1484 1486 1488 1490 1493 1495 1498 1500 1502 1504 1506 1508 1509 1510 1511 1512 1512 1513 1514 1514
1482 1483 1485 1484 1482 1483 1478 1480 1482 1484 1482 1474 1481 1465 1456 1462 1467 1469 1470 1472 1473 1475 1476 1478 1479 1481 1484 1486 1489 1492 1494 1496 1498 1501 1503 1504 1505 1506 1507 1508 1509 1510 1511 1511
1479 1482 1483 1481 1480 1482 1479 1483 1483 1483 1480 1477 1477 1473 1452 1460 1461 1462 1465 1467 1469 1470 1472 1474 1475 1478 1481 1483 1486 1488 1490 1493 1495 1497 1499 1501 1502 1503 1505 1505 1506 1507 1508 1509
1481 1483 1483 1481 1482 1483 1484 1484 1484 1483 1479 1473 1464 1467 1448 1453 1456 1458 1461 1464 1465 1467 1469 1471 1473 1476 1478 1480 1482 1485 1487 1489 1491 1493 1495 1497 1498 1500 1501 1502 1503 1504 1504 1505
1478 1481 1482 1483 1481 1482 1481 1478 1474 1472 1470 1458 1464 1465 1452 1454 1457 1459 1460 1462 1463 1465 1466 1468 1469 1471 1474 1476 1478 1481 1483 1485 1487 1489 1491 1493 1495 1496 1497 1498 1499 1500 1501 1501
1475 1472 1478 1480 1478 1478 1477 1473 1470 1466 1455 1451 1466 1458 1450 1457 1459 1459 1460 1461 1462 1463 1464 1465 1466 1468 1470 1473 1475 1477 1479 1481 1484 1486 1488 1489 1491 1492 1494 1495 1496 1497 1497 1498
1474 1472 1479 1480 1480 1478 1476 1473 1472 1470 1467 1463 1450 1452 1454 1457 1458 1459 1459 1460 1460 1461 1462 1463 1464 1466 1468 1469 1471 1473 1475 1478 1480 1482 1484 1485 1487 1488 1490 1491 1492 1493 1493 1494
1481 1478 1478 1480 1480 1479 1477 1474 1475 1470 1464 1454 1443 1445 1445 1452 1454 1457 1458 1459 1459 1460 1460 1461 1463 1464 1465 1467 1468 1470 1472 1474 1476 1478 1480 1481 1483 1484 1486 1487 1488 1488 1489 1490
1483 1480 1478 1479 1475 1471 1476 1476 1471 1466 1463 1455 1444 1441 1450 1452 1454 1456 1457 1458 1459 1459 1459 1460 1461 1462 1463 1465 1466 1467 1469 1471 1472 1474 1476 1478 1479 1480 1481 1482 1483 1484 1485 1485
1482 1480 1474 1473 1475 1476 1472 1470 1469 1466 1462 1461 1450 1446 1456 1456 1457 1457 1458 1459 1459 1459 1459 1459 1459 1460 1461 1462 1464 1465 1466 1467 1469 1471 1472 1474 1475 1476 1477 1478 1479 1479 1480 1480
1483 1481 1474 1467 1473 1477 1475 1472 1471 1469 1464 1458 1452 1448 1458 1458 1457 1457 1458 1458 1458 1458 1458 1458 1458 1458 1459 1460 1461 1462 1463 1465 1466 1467 1469 1470 1471 1472 1473 1474 1474 1475 1476 1476
1481 1478 1474 1464 1459 1467 1472 1471 1470 1469 1462 1454 1449 1447 1453 1455 1456 1457 1457 1458 1458 1457 1457 1456 1456 1456 1457 1458 1459 1460 1461 1462 1463 1464 1465 1466 1467 1468 1469 1470 1470 1471 1471 1471
1480 1475 1472 1469 1467 1468 1467 1466 1468 1467 1460 1455 1448 1450 1451 1454 1456 1456 1456 1456 1456 1456 1455 1455 1454 1455 1455 1456 1456 1457 1458 1459 1460 1461 1461 1462 1463 1464 1464 1465 1466 1466 1466 1466
1479 1475 1473 1468 1466 1466 1465 1462 1463 1464 1462 1459 1455 1453 1454 1455 1455 1455 1455 1455 1454 1454 1453 1453 1453 1453 1453 1453 1454 1454 1455 1456 1456 1457 1458 1459 1459 1460 1460 1461 1461 1462 1462 1462
1477 1476 1472 1462 1464 1464 1457 1458 1460 1461 1461 1459 1455 1454 1455 1454 1454 1454 1454 1453 1453 1452 1452 1451 1450 1450 1450 1451 1451 1451 1452 1453 1453 1454 1455 1455 1456 1456 1456 1457 1457 1457 1457 1457
1475 1473 1471 1465 1465 1458 1455 1460 1460 1460 1460 1460 1459 1457 1455 1455 1453 1453 1452 1452 1451 1450 1449 1449 1448 1448 1448 1448 1449 1449 1450 1450 1450 1451 1451 1452 1452 1452 1453 1453 1453 1453 1453 1453
1473 1471 1467 1464 1457 1450 1455 1461 1462 1460 1457 1459 1458 1456 1455 1454 1452 1451 1451 1450 1449 1448 1447 1447 1446 1446 1446 1446 1446 1446 1447 1447 1447 1448 1448 1448 1448 1448 1449 1449 1449 1449 1448 1448
1473 1472 1468 1463 1457 1448 1455 1462 1461 1461 1454 1458 1458 1456 1455 1454 1450 1449 1450 1448 1447 1446 1445 1445 1444 1443 1443 1443 1443 1443 1443 1444 1444 1444 1444 1445 1445 1445 1445 1445 1445 1445 1444 1444
1472 1471 1468 1463 1458 1454 1465 1464 1461 1458 1456 1461 1459 1457 1456 1454 1452 1451 1448 1446 1445 1444 1443 1442 1441 1441 1441 1441 1440 1440 1440 1440 1441 1441 1441 1441 1441 1442 1441 1441 1441 1441 1440 1440
1472 1468 1468 1464 1459 1460 1468 1466 1465 1463 1463 1461 1459 1457 1455 1453 1450 1447 1445 1444 1442 1441 1440 1440 1439 1438 1438 1438 1438 1437 1437 1437 1438 1438 1438 1438 1438 1438 1438 1438 1437 1437 1437 1436
1479 1478 1473 1471 1468 1470 1469 1468 1467 1465 1463 1460 1458 1455 1453 1450 1447 1445 1443 1441 1440 1439 1438 1437 1436 1435 1435 1435 1435 1434 1434 1434 1434 1434 1434 1434 1435 1435 1434 1434 1434 1433 1433 1433
1479 1479 1476 1472 1468 1469 1468 1467 1465 1463 1461 1458 1456 1453 1450 1448 1445 1443 1441 1439 1438 1436 1435 1434 1434 1432 1432 1432 1432 1431 1431 1431 1430 1430 1430 1431 1431 1431 1431 1431 1430 1430 1429 1429
1479 1478 1475 1471 1469 1468 1466 1465 1464 1461 1459 1456 1453 1451 1448 1446 1443 1441 1439 1437 1435 1434 1433 1432 1430 1429 1429 1428 1428 1428 1428 1427 1427 1427 1427 1427 1427 1427 1427 1427 1427 1426 1426 1426
1479 1479 1476 1470 1471 1470 1467 1465 1463 1460 1457 1454 1451 1448 1446 1444 1441 1439 1437 1435 1433 1431 1430 1428 1427 1426 1425 1425 1424 1424 1424 1424 1424 1423 1423 1424 1424 1424 1423 1423 1423 1423 1423 1422